Regional Weather Roundup
Issued by NWS Cleveland, OH

Home | Current Version | Previous Version | Text Only | Print | Product List | Glossary Off
Versions: 1 2 3 4 5 6 7 8 9 10 11 12 13 14 15 16 17 18 19 20 21 22 23 24 25 26 27 28 29 30 31 32 33 34 35 36 37 38 39 40 41 42 43 44 45 46 47 48 49 50

000
ASUS41 KCLE 250002
RWRCLE
OHIO REGIONAL WEATHER ROUNDUP
NATIONAL WEATHER SERVICE CLEVELAND, OH
800 PM EDT THU APR 24 2014

NOTE: "FAIR" INDICATES FEW OR NO CLOUDS BELOW 12,000 FEET WITH NO
SIGNIFICANT WEATHER AND/OR OBSTRUCTIONS TO VISIBILITY.

OHZ001>008-015>018-024>027-034-035-043-044-250100-
   NORTHWEST OHIO

CITY           SKY/WX    TMP DP  RH WIND       PRES   REMARKS
DEFIANCE       CLOUDY    51  28  41 E17G26    29.91F
FINDLAY        CLOUDY    51  30  44 E13       29.91F
TOLEDO EXPRESS CLOUDY    46  28  49 E12       29.94F
TOLEDO EXEC    CLOUDY    45  28  51 E12       29.97F
LIMA           CLOUDY    56  26  31 E8        29.90F
$$

OHZ009>014-019>023-028>033-038-089-250100-
   NORTHEAST OHIO

CITY           SKY/WX    TMP DP  RH WIND       PRES   REMARKS
CLE-HOPKINS    MOCLDY    50  24  36 NE10      30.01F
CLE-LAKEFRONT  PTCLDY    47  33  58 NE12      29.98F
CUY CO. ARPT   NOT AVBL
LORAIN-ELYRIA  CLOUDY    50  20  30 NE8       29.99F
ASHTABULA      MOCLDY    48  14  25 NE5       30.02F
AKRON-CANTON   MOCLDY    55  19  24 E6        29.98F
WOOSTER        MOCLDY    54  31  41 E6        29.97F
MANSFIELD      CLOUDY    55  25  31 E7        29.96F
YOUNGSTOWN     CLOUDY    53  18  25 CALM      29.99F
$$

OHZ042-051>053-060>062-070>072-077>081-250100-
  SOUTHWEST OHIO

CITY           SKY/WX    TMP DP  RH WIND       PRES   REMARKS
CINC-COVINGTON CLOUDY    64  32  30 E9        29.84F
CINC-LUNKEN    MOCLDY    63  30  28 SE3       29.85F
HAMILTON       CLOUDY    66  28  24 VRB5      29.86F
DAYTON         CLOUDY    61  22  22 E14       29.87F
WRIGHT-PAT AFB NOT AVBL
DAYTON GENERAL MOCLDY    61  25  25 E8        29.85F
WILMINGTON     MOCLDY    60  21  22 E8        29.87F
$$

OHZ036-037-039>041-045>050-054>059-063>069-073>076-082>088-250100-
  CENTRAL AND SOUTHEAST OHIO

CITY           SKY/WX    TMP DP  RH WIND       PRES   REMARKS
COLUMBUS       CLOUDY    60  23  24 E10       29.92F
OSU AIRPORT    CLOUDY    58  24  27 E10       29.91F
BOLTON FIELD   NOT AVBL
RICKENBACK AFB NOT AVBL
NEWARK         LGT RAIN  58  26  29 E8        29.93F
MARION         CLOUDY    55  27  34 SE10      29.93F
LANCASTER      CLOUDY    58  25  28 E8        29.93F
ZANESVILLE     MOCLDY    59  21  23 E5        29.96S
NEW PHILLY     MOCLDY    58  22  24 SE7       29.97F
$$



USA.gov is the U.S. government's official web portal to all federal, state and local government web resources and services.